Time,TemperatureF,DewpointF,PressureIn,WindDirection,WindDirectionDegrees,WindSpeedMPH,WindSpeedGustMPH,Humidity,HourlyPrecipIn,Conditions,Clouds,dailyrainin,SoftwareType,DateUTC
2013-07-06 00:05:00,63.5,50.6,29.93,NNE,22,0.0,0.0,63,0.00,,,0.00,Customized_open2300,2013-07-06 07:05:00,
2013-07-06 00:10:00,63.3,50.5,29.93,NNE,22,0.0,0.0,63,0.00,,,0.00,Customized_open2300,2013-07-06 07:10:00,
2013-07-06 00:15:00,63.3,50.5,29.93,NNE,22,0.0,0.0,63,0.00,,,0.00,Customized_open2300,2013-07-06 07:15:00,
2013-07-06 00:25:00,63.0,50.5,29.94,NNE,22,0.0,0.0,64,0.00,,,0.00,Customized_open2300,2013-07-06 07:25:00,
2013-07-06 00:30:00,62.8,50.4,29.94,NNE,22,0.0,0.0,64,0.00,,,0.00,Customized_open2300,2013-07-06 07:30:00,
2013-07-06 00:35:00,62.8,50.4,29.93,NNE,22,0.0,0.0,64,0.00,,,0.00,Customized_open2300,2013-07-06 07:35:00,
2013-07-06 00:45:00,62.4,50.1,29.94,NNE,22,0.0,0.0,64,0.00,,,0.00,Customized_open2300,2013-07-06 07:45:00,
2013-07-06 00:55:00,62.2,50.3,29.94,NNE,22,0.0,0.0,65,0.00,,,0.00,Customized_open2300,2013-07-06 07:55:00,
2013-07-06 01:01:00,62.1,50.1,29.94,NNE,22,0.0,0.0,65,0.00,,,0.00,Customized_open2300,2013-07-06 08:01:00,
2013-07-06 01:10:00,61.7,50.2,29.93,NNE,22,0.0,0.0,66,0.00,,,0.00,Customized_open2300,2013-07-06 08:10:00,
2013-07-06 01:20:00,61.5,50.1,29.93,NNE,22,0.0,0.0,66,0.00,,,0.00,Customized_open2300,2013-07-06 08:20:00,
2013-07-06 01:30:00,61.2,49.7,29.93,NNE,22,0.0,0.0,66,0.00,,,0.00,Customized_open2300,2013-07-06 08:30:00,
2013-07-06 01:40:00,61.0,50.0,29.93,NNW,337,0.0,0.0,67,0.00,,,0.00,Customized_open2300,2013-07-06 08:40:00,
2013-07-06 01:45:00,60.6,49.7,29.93,NNW,337,0.0,0.0,67,0.00,,,0.00,Customized_open2300,2013-07-06 08:45:00,
2013-07-06 01:55:00,60.3,49.3,29.93,NNW,337,0.0,0.0,67,0.00,,,0.00,Customized_open2300,2013-07-06 08:55:00,
2013-07-06 02:01:00,60.1,49.1,29.93,NNW,337,0.0,0.0,67,0.00,,,0.00,Customized_open2300,2013-07-06 09:01:00,
2013-07-06 02:10:00,59.9,49.4,29.93,NNW,337,0.0,0.0,68,0.00,,,0.00,Customized_open2300,2013-07-06 09:10:00,
2013-07-06 02:15:00,59.7,49.2,29.93,NNW,337,0.0,0.0,68,0.00,,,0.00,Customized_open2300,2013-07-06 09:15:00,
2013-07-06 02:25:00,59.7,49.2,29.93,NNW,337,0.0,0.0,68,0.00,,,0.00,Customized_open2300,2013-07-06 09:25:00,
2013-07-06 02:30:00,59.5,49.0,29.93,NNW,337,0.0,0.0,68,0.00,,,0.00,Customized_open2300,2013-07-06 09:30:00,
2013-07-06 02:35:00,59.4,48.8,29.93,NNW,337,0.0,0.0,68,0.00,,,0.00,Customized_open2300,2013-07-06 09:35:00,
2013-07-06 02:40:00,59.2,49.0,29.93,NNW,337,0.0,0.0,69,0.00,,,0.00,Customized_open2300,2013-07-06 09:40:00,
2013-07-06 02:50:00,58.8,48.7,29.93,NNW,337,0.0,0.0,69,0.00,,,0.00,Customized_open2300,2013-07-06 09:50:00,
2013-07-06 02:55:00,58.8,48.7,29.92,NNW,337,0.0,0.0,69,0.00,,,0.00,Customized_open2300,2013-07-06 09:55:00,
2013-07-06 03:01:00,58.8,48.7,29.92,NNW,337,0.0,0.0,69,0.00,,,0.00,Customized_open2300,2013-07-06 10:01:00,
2013-07-06 03:10:00,58.8,48.7,29.92,NNW,337,0.0,0.0,69,0.00,,,0.00,Customized_open2300,2013-07-06 10:10:00,
2013-07-06 03:15:00,58.6,48.5,29.93,NNW,337,0.0,0.0,69,0.00,,,0.00,Customized_open2300,2013-07-06 10:15:00,
2013-07-06 03:25:00,58.3,48.1,29.93,NNW,337,0.0,0.0,69,0.00,,,0.00,Customized_open2300,2013-07-06 10:25:00,
2013-07-06 03:30:00,58.1,48.0,29.93,NNW,337,0.0,0.0,69,0.00,,,0.00,Customized_open2300,2013-07-06 10:30:00,
2013-07-06 03:35:00,57.9,48.2,29.93,NNW,337,0.0,0.0,70,0.00,,,0.00,Customized_open2300,2013-07-06 10:35:00,
2013-07-06 03:40:00,57.9,48.2,29.93,NNW,337,0.0,0.0,70,0.00,,,0.00,Customized_open2300,2013-07-06 10:40:00,
2013-07-06 03:45:00,57.9,48.2,29.92,NNW,337,0.0,0.0,70,0.00,,,0.00,Customized_open2300,2013-07-06 10:45:00,
2013-07-06 03:55:00,57.9,48.2,29.93,NNW,337,0.0,0.0,70,0.00,,,0.00,Customized_open2300,2013-07-06 10:55:00,
2013-07-06 04:01:00,57.7,48.0,29.93,NNW,337,0.0,0.0,70,0.00,,,0.00,Customized_open2300,2013-07-06 11:01:00,
2013-07-06 04:10:00,57.2,47.5,29.92,NNW,337,0.0,0.0,70,0.00,,,0.00,Customized_open2300,2013-07-06 11:10:00,
2013-07-06 04:15:00,57.0,47.3,29.93,NNW,337,0.0,0.0,70,0.00,,,0.00,Customized_open2300,2013-07-06 11:15:00,
2013-07-06 04:20:00,57.0,47.3,29.93,NNW,337,0.0,0.0,70,0.00,,,0.00,Customized_open2300,2013-07-06 11:20:00,
2013-07-06 04:30:00,56.7,47.0,29.93,NNW,337,0.0,0.0,70,0.00,,,0.00,Customized_open2300,2013-07-06 11:30:00,
2013-07-06 04:35:00,56.5,46.8,29.93,NNW,337,0.0,0.0,70,0.00,,,0.00,Customized_open2300,2013-07-06 11:35:00,
2013-07-06 04:40:00,56.5,46.8,29.92,NNW,337,0.0,0.0,70,0.00,,,0.00,Customized_open2300,2013-07-06 11:40:00,
2013-07-06 04:45:00,56.5,46.8,29.92,NNW,337,0.0,0.0,70,0.00,,,0.00,Customized_open2300,2013-07-06 11:45:00,
2013-07-06 04:55:00,56.3,46.7,29.92,NNW,337,0.0,0.0,70,0.00,,,0.00,Customized_open2300,2013-07-06 11:55:00,
2013-07-06 05:01:00,56.1,46.9,29.92,NNW,337,0.0,0.0,71,0.00,,,0.00,Customized_open2300,2013-07-06 12:01:00,
2013-07-06 05:10:00,55.9,46.3,29.92,NNW,337,0.0,0.0,70,0.00,,,0.00,Customized_open2300,2013-07-06 12:10:00,
2013-07-06 05:15:00,55.8,46.2,29.93,NNW,337,0.0,0.0,70,0.00,,,0.00,Customized_open2300,2013-07-06 12:15:00,
2013-07-06 05:20:00,55.6,46.0,29.92,NNW,337,0.0,0.0,70,0.00,,,0.00,Customized_open2300,2013-07-06 12:20:00,
2013-07-06 05:25:00,55.6,46.0,29.92,NNW,337,0.0,0.0,70,0.00,,,0.00,Customized_open2300,2013-07-06 12:25:00,
2013-07-06 05:30:00,55.2,45.7,29.92,NNW,337,0.0,0.0,70,0.00,,,0.00,Customized_open2300,2013-07-06 12:30:00,
2013-07-06 05:40:00,55.0,45.8,29.93,NNW,337,0.0,0.0,71,0.00,,,0.00,Customized_open2300,2013-07-06 12:40:00,
2013-07-06 05:45:00,55.0,45.8,29.93,NNW,337,0.0,0.0,71,0.00,,,0.00,Customized_open2300,2013-07-06 12:45:00,
2013-07-06 05:50:00,54.7,45.5,29.93,NNW,337,0.0,0.0,71,0.00,,,0.00,Customized_open2300,2013-07-06 12:50:00,
2013-07-06 06:01:00,54.3,45.1,29.93,NNW,337,0.0,0.0,71,0.00,,,0.00,Customized_open2300,2013-07-06 13:01:00,
2013-07-06 06:10:00,54.3,45.1,29.93,NNW,337,0.0,0.0,71,0.00,,,0.00,Customized_open2300,2013-07-06 13:10:00,
2013-07-06 06:15:00,54.3,45.1,29.93,NNW,337,0.0,0.0,71,0.00,,,0.00,Customized_open2300,2013-07-06 13:15:00,
2013-07-06 06:25:00,54.3,45.1,29.93,NNW,337,0.0,0.0,71,0.00,,,0.00,Customized_open2300,2013-07-06 13:25:00,
2013-07-06 06:30:00,54.3,45.1,29.93,NNW,337,0.0,0.0,71,0.00,,,0.00,Customized_open2300,2013-07-06 13:30:00,
2013-07-06 06:35:00,54.3,45.5,29.93,NNW,337,0.0,0.0,72,0.00,,,0.00,Customized_open2300,2013-07-06 13:35:00,
2013-07-06 06:40:00,54.3,45.5,29.93,NNW,337,0.0,0.0,72,0.00,,,0.00,Customized_open2300,2013-07-06 13:40:00,
2013-07-06 06:50:00,54.3,45.5,29.94,NNW,337,0.0,0.0,72,0.00,,,0.00,Customized_open2300,2013-07-06 13:50:00,
2013-07-06 06:55:00,54.3,45.5,29.94,NNW,337,0.0,0.0,72,0.00,,,0.00,Customized_open2300,2013-07-06 13:55:00,
2013-07-06 07:01:00,54.3,45.5,29.93,NNW,337,0.0,0.0,72,0.00,,,0.00,Customized_open2300,2013-07-06 14:01:00,
2013-07-06 07:10:00,54.7,46.2,29.93,NNW,337,0.0,0.0,73,0.00,,,0.00,Customized_open2300,2013-07-06 14:10:00,
2013-07-06 07:15:00,55.0,46.5,29.94,NNW,337,0.0,0.0,73,0.00,,,0.00,Customized_open2300,2013-07-06 14:15:00,
2013-07-06 07:20:00,55.0,46.5,29.94,NNW,337,0.0,0.0,73,0.00,,,0.00,Customized_open2300,2013-07-06 14:20:00,
2013-07-06 07:25:00,55.2,46.7,29.94,NNW,337,0.0,0.0,73,0.00,,,0.00,Customized_open2300,2013-07-06 14:25:00,
2013-07-06 07:35:00,55.4,47.2,29.93,NNW,337,0.0,0.0,74,0.00,,,0.00,Customized_open2300,2013-07-06 14:35:00,
2013-07-06 07:45:00,55.6,47.7,29.93,North,0,0.0,0.0,75,0.00,,,0.00,Customized_open2300,2013-07-06 14:45:00,
2013-07-06 07:50:00,55.9,48.1,29.93,NNW,337,0.0,0.0,75,0.00,,,0.00,Customized_open2300,2013-07-06 14:50:00,
2013-07-06 08:00:00,56.3,48.4,29.94,North,0,0.0,0.0,75,0.00,,,0.00,Customized_open2300,2013-07-06 15:00:00,
2013-07-06 08:05:00,56.5,48.6,29.94,NNW,337,0.0,0.0,75,0.00,,,0.00,Customized_open2300,2013-07-06 15:05:00,
2013-07-06 08:15:00,56.8,48.9,29.94,North,0,0.0,0.0,75,0.00,,,0.00,Customized_open2300,2013-07-06 15:15:00,
2013-07-06 08:20:00,57.0,49.1,29.94,North,0,0.0,0.0,75,0.00,,,0.00,Customized_open2300,2013-07-06 15:20:00,
2013-07-06 08:30:00,57.9,50.0,29.94,NNW,337,0.0,0.0,75,0.00,,,0.00,Customized_open2300,2013-07-06 15:30:00,
2013-07-06 08:35:00,58.3,50.4,29.94,NNW,337,0.0,0.0,75,0.00,,,0.00,Customized_open2300,2013-07-06 15:35:00,
2013-07-06 08:45:00,58.8,50.9,29.93,NNW,337,0.0,0.0,75,0.00,,,0.00,Customized_open2300,2013-07-06 15:45:00,
2013-07-06 08:50:00,59.2,50.9,29.93,NNW,337,0.0,0.0,74,0.00,,,0.00,Customized_open2300,2013-07-06 15:50:00,
2013-07-06 08:55:00,59.4,51.4,29.93,NNW,337,0.0,0.0,75,0.00,,,0.00,Customized_open2300,2013-07-06 15:55:00,
2013-07-06 09:05:00,60.4,52.2,29.93,NE,45,0.0,0.0,74,0.00,,,0.00,Customized_open2300,2013-07-06 16:05:00,
2013-07-06 09:15:00,61.5,53.2,29.93,ESE,112,0.0,0.0,74,0.00,,,0.00,Customized_open2300,2013-07-06 16:15:00,
2013-07-06 09:20:00,61.9,53.1,29.93,ESE,112,0.0,0.0,73,0.00,,,0.00,Customized_open2300,2013-07-06 16:20:00,
2013-07-06 09:30:00,62.4,53.3,29.92,East,90,0.0,0.0,72,0.00,,,0.00,Customized_open2300,2013-07-06 16:30:00,
2013-07-06 09:40:00,63.1,54.0,29.92,WNW,292,0.0,0.0,72,0.00,,,0.00,Customized_open2300,2013-07-06 16:40:00,
2013-07-06 09:50:00,64.0,54.1,29.92,ENE,67,0.0,0.0,70,0.00,,,0.00,Customized_open2300,2013-07-06 16:50:00,
2013-07-06 10:00:00,64.8,54.8,29.92,NE,45,0.0,0.0,70,0.00,,,0.00,Customized_open2300,2013-07-06 17:00:00,
2013-07-06 10:05:00,65.1,54.7,29.92,North,0,0.0,0.0,69,0.00,,,0.00,Customized_open2300,2013-07-06 17:05:00,
2013-07-06 10:15:00,65.5,54.6,29.91,NNW,337,0.0,0.0,68,0.00,,,0.00,Customized_open2300,2013-07-06 17:15:00,
2013-07-06 10:25:00,65.8,54.5,29.91,ESE,112,0.0,0.0,67,0.00,,,0.00,Customized_open2300,2013-07-06 17:25:00,
2013-07-06 10:30:00,66.4,55.5,29.91,NNW,337,0.0,0.0,68,0.00,,,0.00,Customized_open2300,2013-07-06 17:30:00,
2013-07-06 10:45:00,67.3,54.6,29.91,North,0,0.0,0.0,64,0.00,,,0.00,Customized_open2300,2013-07-06 17:45:00,
2013-07-06 10:50:00,67.5,54.8,29.91,NNW,337,0.0,0.0,64,0.00,,,0.00,Customized_open2300,2013-07-06 17:50:00,
2013-07-06 11:05:00,68.2,55.5,29.90,NNW,337,0.0,0.0,64,0.00,,,0.00,Customized_open2300,2013-07-06 18:05:00,
2013-07-06 11:10:00,68.5,55.4,29.90,NNE,22,0.0,0.0,63,0.00,,,0.00,Customized_open2300,2013-07-06 18:10:00,
2013-07-06 11:20:00,69.1,55.5,29.90,NNW,337,0.0,0.0,62,0.00,,,0.00,Customized_open2300,2013-07-06 18:20:00,
2013-07-06 11:31:00,69.6,55.6,29.90,NNW,337,0.0,0.0,61,0.00,,,0.00,Customized_open2300,2013-07-06 18:31:00,
2013-07-06 12:00:00,71.1,56.0,29.89,NNW,337,0.0,0.0,59,0.00,,,0.00,Customized_open2300,2013-07-06 19:00:00,
2013-07-06 12:05:00,71.2,56.2,29.90,NNW,337,0.0,0.0,59,0.00,,,0.00,Customized_open2300,2013-07-06 19:05:00,
2013-07-06 12:20:00,71.4,55.9,29.89,NNW,337,0.0,0.0,58,0.00,,,0.00,Customized_open2300,2013-07-06 19:20:00,
2013-07-06 12:25:00,71.4,55.3,29.89,NNW,337,0.0,0.0,57,0.00,,,0.00,Customized_open2300,2013-07-06 19:25:00,
2013-07-06 12:41:00,71.6,55.5,29.89,North,0,0.0,0.0,57,0.00,,,0.00,Customized_open2300,2013-07-06 19:41:00,
2013-07-06 12:50:00,71.8,56.2,29.89,North,0,0.0,0.0,58,0.00,,,0.00,Customized_open2300,2013-07-06 19:50:00,
2013-07-06 13:10:00,72.5,56.3,29.89,North,0,0.0,0.0,57,0.00,,,0.00,Customized_open2300,2013-07-06 20:10:00,
2013-07-06 13:15:00,72.7,56.0,29.89,North,0,0.0,0.0,56,0.00,,,0.00,Customized_open2300,2013-07-06 20:15:00,
2013-07-06 13:20:00,72.7,56.0,29.89,North,0,0.0,0.0,56,0.00,,,0.00,Customized_open2300,2013-07-06 20:20:00,
2013-07-06 13:30:00,73.0,56.3,29.89,North,0,0.0,0.0,56,0.00,,,0.00,Customized_open2300,2013-07-06 20:30:00,
2013-07-06 13:35:00,73.0,56.3,29.88,NNE,22,0.0,0.0,56,0.00,,,0.00,Customized_open2300,2013-07-06 20:35:00,
2013-07-06 13:40:00,73.6,57.3,29.88,ENE,67,0.0,0.0,57,0.00,,,0.00,Customized_open2300,2013-07-06 20:40:00,
2013-07-06 13:55:00,74.1,56.8,29.88,NNE,22,0.0,0.0,55,0.00,,,0.00,Customized_open2300,2013-07-06 20:55:00,
2013-07-06 14:05:00,74.5,57.2,29.87,North,0,0.0,0.0,55,0.00,,,0.00,Customized_open2300,2013-07-06 21:05:00,
2013-07-06 14:10:00,74.5,56.7,29.87,NNW,337,0.0,0.0,54,0.00,,,0.00,Customized_open2300,2013-07-06 21:10:00,
2013-07-06 14:20:00,74.5,56.7,29.87,WSW,247,0.0,0.0,54,0.00,,,0.00,Customized_open2300,2013-07-06 21:20:00,
2013-07-06 14:30:00,74.8,57.1,29.87,WSW,247,0.0,0.0,54,0.00,,,0.00,Customized_open2300,2013-07-06 21:30:00,
2013-07-06 14:35:00,74.8,56.6,29.87,WSW,247,0.0,0.0,53,0.00,,,0.00,Customized_open2300,2013-07-06 21:35:00,
2013-07-06 14:50:00,75.0,56.7,29.87,WSW,247,0.0,0.0,53,0.00,,,0.00,Customized_open2300,2013-07-06 21:50:00,
2013-07-06 14:55:00,75.0,56.7,29.87,WSW,247,0.0,0.0,53,0.00,,,0.00,Customized_open2300,2013-07-06 21:55:00,
2013-07-06 15:00:00,75.4,57.1,29.86,WSW,247,0.0,0.0,53,0.00,,,0.00,Customized_open2300,2013-07-06 22:00:00,
2013-07-06 15:15:00,76.1,57.7,29.86,WSW,247,0.0,0.0,53,0.00,,,0.00,Customized_open2300,2013-07-06 22:15:00,
2013-07-06 15:30:00,76.6,58.2,29.86,WSW,247,0.0,0.0,53,0.00,,,0.00,Customized_open2300,2013-07-06 22:30:00,
2013-07-06 15:35:00,76.8,57.9,29.86,WSW,247,0.0,0.0,52,0.00,,,0.00,Customized_open2300,2013-07-06 22:35:00,
2013-07-06 15:45:00,76.8,57.4,29.85,WSW,247,0.0,0.0,51,0.00,,,0.00,Customized_open2300,2013-07-06 22:45:00,
2013-07-06 15:55:00,76.8,57.9,29.85,WSW,247,0.0,0.0,52,0.00,,,0.00,Customized_open2300,2013-07-06 22:55:00,
2013-07-06 16:00:00,77.2,58.2,29.85,WSW,247,0.0,0.0,52,0.00,,,0.00,Customized_open2300,2013-07-06 23:00:00,
2013-07-06 16:05:00,77.2,58.2,29.85,WSW,247,0.0,0.0,52,0.00,,,0.00,Customized_open2300,2013-07-06 23:05:00,
2013-07-06 16:10:00,77.5,58.5,29.84,WSW,247,0.0,0.0,52,0.00,,,0.00,Customized_open2300,2013-07-06 23:10:00,
2013-07-06 16:25:00,77.7,58.2,29.84,WSW,247,0.0,0.0,51,0.00,,,0.00,Customized_open2300,2013-07-06 23:25:00,
2013-07-06 16:31:00,77.7,58.2,29.84,WSW,247,0.0,0.0,51,0.00,,,0.00,Customized_open2300,2013-07-06 23:31:00,
2013-07-06 16:50:00,77.7,58.7,29.84,WSW,247,0.0,0.0,52,0.00,,,0.00,Customized_open2300,2013-07-06 23:50:00,
2013-07-06 16:55:00,77.7,58.2,29.84,WSW,247,0.0,0.0,51,0.00,,,0.00,Customized_open2300,2013-07-06 23:55:00,
2013-07-06 17:00:00,77.5,58.0,29.84,WSW,247,0.0,0.0,51,0.00,,,0.00,Customized_open2300,2013-07-07 00:00:00,
2013-07-06 17:10:00,77.5,58.5,29.83,WSW,247,0.0,0.0,52,0.00,,,0.00,Customized_open2300,2013-07-07 00:10:00,
2013-07-06 17:15:00,77.5,58.5,29.83,WSW,247,0.0,0.0,52,0.00,,,0.00,Customized_open2300,2013-07-07 00:15:00,
2013-07-06 17:25:00,77.5,58.5,29.83,WSW,247,0.0,0.0,52,0.00,,,0.00,Customized_open2300,2013-07-07 00:25:00,
2013-07-06 17:30:00,77.7,58.7,29.83,WSW,247,0.0,0.0,52,0.00,,,0.00,Customized_open2300,2013-07-07 00:30:00,
2013-07-06 17:50:00,77.7,58.7,29.82,WSW,247,0.0,0.0,52,0.00,,,0.00,Customized_open2300,2013-07-07 00:50:00,
2013-07-06 17:55:00,77.7,58.7,29.82,WSW,247,0.0,0.0,52,0.00,,,0.00,Customized_open2300,2013-07-07 00:55:00,
2013-07-06 18:00:00,77.9,58.9,29.82,WSW,247,0.0,0.0,52,0.00,,,0.00,Customized_open2300,2013-07-07 01:00:00,
2013-07-06 18:05:00,77.7,58.7,29.82,WSW,247,0.0,0.0,52,0.00,,,0.00,Customized_open2300,2013-07-07 01:05:00,
2013-07-06 18:10:00,77.7,58.7,29.82,WSW,247,0.0,0.0,52,0.00,,,0.00,Customized_open2300,2013-07-07 01:10:00,
2013-07-06 18:15:00,77.9,58.9,29.82,WSW,247,0.0,0.0,52,0.00,,,0.00,Customized_open2300,2013-07-07 01:15:00,
2013-07-06 18:20:00,77.9,58.9,29.82,WSW,247,0.0,0.0,52,0.00,,,0.00,Customized_open2300,2013-07-07 01:20:00,
2013-07-06 18:30:00,77.5,58.5,29.82,WSW,247,0.0,0.0,52,0.00,,,0.00,Customized_open2300,2013-07-07 01:30:00,
2013-07-06 18:50:00,77.5,59.0,29.82,WSW,247,0.0,0.0,53,0.00,,,0.00,Customized_open2300,2013-07-07 01:50:00,
2013-07-06 19:00:00,77.5,58.5,29.82,WSW,247,0.0,0.0,52,0.00,,,0.00,Customized_open2300,2013-07-07 02:00:00,
2013-07-06 19:10:00,77.0,58.5,29.82,NNW,337,0.0,0.0,53,0.00,,,0.00,Customized_open2300,2013-07-07 02:10:00,
2013-07-06 19:20:00,76.8,58.4,29.82,NNE,22,0.0,0.0,53,0.00,,,0.00,Customized_open2300,2013-07-07 02:20:00,
2013-07-06 19:30:00,76.3,58.4,29.82,NNE,22,0.0,0.0,54,0.00,,,0.00,Customized_open2300,2013-07-07 02:30:00,
2013-07-06 19:35:00,75.9,58.1,29.82,WSW,247,0.0,0.0,54,0.00,,,0.00,Customized_open2300,2013-07-07 02:35:00,
2013-07-06 19:50:00,75.4,57.6,29.82,NE,45,0.0,0.0,54,0.00,,,0.00,Customized_open2300,2013-07-07 02:50:00,
2013-07-06 20:05:00,75.0,57.2,29.82,ENE,67,0.0,0.0,54,0.00,,,0.00,Customized_open2300,2013-07-07 03:05:00,
2013-07-06 20:15:00,74.8,57.6,29.83,ENE,67,0.0,0.0,55,0.00,,,0.00,Customized_open2300,2013-07-07 03:15:00,
2013-07-06 20:25:00,74.5,57.2,29.82,ENE,67,0.0,0.0,55,0.00,,,0.00,Customized_open2300,2013-07-07 03:25:00,
2013-07-06 20:35:00,74.1,56.8,29.83,ENE,67,0.0,0.0,55,0.00,,,0.00,Customized_open2300,2013-07-07 03:35:00,
2013-07-06 20:50:00,73.8,57.0,29.84,ENE,67,0.0,0.0,56,0.00,,,0.00,Customized_open2300,2013-07-07 03:50:00,
2013-07-06 21:00:00,73.4,56.6,29.84,ENE,67,0.0,0.0,56,0.00,,,0.00,Customized_open2300,2013-07-07 04:00:00,
2013-07-06 21:05:00,73.2,56.5,29.84,ENE,67,0.0,0.0,56,0.00,,,0.00,Customized_open2300,2013-07-07 04:05:00,
2013-07-06 21:10:00,73.0,56.3,29.83,ENE,67,0.0,0.0,56,0.00,,,0.00,Customized_open2300,2013-07-07 04:10:00,
2013-07-06 21:15:00,72.7,56.5,29.83,ENE,67,0.0,0.0,57,0.00,,,0.00,Customized_open2300,2013-07-07 04:15:00,
2013-07-06 21:20:00,72.3,56.2,29.84,ENE,67,0.0,0.0,57,0.00,,,0.00,Customized_open2300,2013-07-07 04:20:00,
2013-07-06 21:25:00,72.1,56.0,29.84,ENE,67,0.0,0.0,57,0.00,,,0.00,Customized_open2300,2013-07-07 04:25:00,
2013-07-06 21:30:00,71.8,56.2,29.84,ENE,67,0.0,0.0,58,0.00,,,0.00,Customized_open2300,2013-07-07 04:30:00,
2013-07-06 21:35:00,71.4,55.9,29.84,ENE,67,0.0,0.0,58,0.00,,,0.00,Customized_open2300,2013-07-07 04:35:00,
2013-07-06 21:40:00,71.2,55.7,29.84,ENE,67,0.0,0.0,58,0.00,,,0.00,Customized_open2300,2013-07-07 04:40:00,
2013-07-06 21:45:00,71.2,55.7,29.84,ENE,67,0.0,0.0,58,0.00,,,0.00,Customized_open2300,2013-07-07 04:45:00,
2013-07-06 21:55:00,70.7,55.7,29.85,ENE,67,0.0,0.0,59,0.00,,,0.00,Customized_open2300,2013-07-07 04:55:00,
2013-07-06 22:00:00,70.5,55.5,29.85,ENE,67,0.0,0.0,59,0.00,,,0.00,Customized_open2300,2013-07-07 05:00:00,
2013-07-06 22:05:00,70.3,55.4,29.85,ENE,67,0.0,0.0,59,0.00,,,0.00,Customized_open2300,2013-07-07 05:05:00,
2013-07-06 22:15:00,70.0,55.6,29.86,ENE,67,0.0,0.0,60,0.00,,,0.00,Customized_open2300,2013-07-07 05:15:00,
2013-07-06 22:20:00,69.6,55.2,29.86,ENE,67,0.0,0.0,60,0.00,,,0.00,Customized_open2300,2013-07-07 05:20:00,
2013-07-06 22:25:00,69.3,54.9,29.86,ENE,67,0.0,0.0,60,0.00,,,0.00,Customized_open2300,2013-07-07 05:25:00,
2013-07-06 22:35:00,68.7,54.7,29.86,ENE,67,0.0,0.0,61,0.00,,,0.00,Customized_open2300,2013-07-07 05:35:00,
2013-07-06 22:45:00,68.5,55.0,29.86,ENE,67,0.0,0.0,62,0.00,,,0.00,Customized_open2300,2013-07-07 05:45:00,
2013-07-06 22:55:00,68.0,54.9,29.87,ENE,67,0.0,0.0,63,0.00,,,0.00,Customized_open2300,2013-07-07 05:55:00,
2013-07-06 23:00:00,67.8,54.7,29.87,ENE,67,0.0,0.0,63,0.00,,,0.00,Customized_open2300,2013-07-07 06:00:00,
2013-07-06 23:05:00,67.6,54.6,29.87,ENE,67,0.0,0.0,63,0.00,,,0.00,Customized_open2300,2013-07-07 06:05:00,
2013-07-06 23:10:00,67.6,54.6,29.87,ENE,67,0.0,0.0,63,0.00,,,0.00,Customized_open2300,2013-07-07 06:10:00,
2013-07-06 23:15:00,67.3,54.2,29.87,ENE,67,0.0,0.0,63,0.00,,,0.00,Customized_open2300,2013-07-07 06:15:00,
2013-07-06 23:20:00,66.9,53.9,29.86,ENE,67,0.0,0.0,63,0.00,,,0.00,Customized_open2300,2013-07-07 06:20:00,
2013-07-06 23:25:00,66.7,54.1,29.87,ENE,67,0.0,0.0,64,0.00,,,0.00,Customized_open2300,2013-07-07 06:25:00,
2013-07-06 23:30:00,66.6,54.0,29.87,ENE,67,0.0,0.0,64,0.00,,,0.00,Customized_open2300,2013-07-07 06:30:00,
2013-07-06 23:40:00,66.0,53.9,29.87,ENE,67,0.0,0.0,65,0.00,,,0.00,Customized_open2300,2013-07-07 06:40:00,
2013-07-06 23:45:00,66.0,53.9,29.87,ENE,67,0.0,0.0,65,0.00,,,0.00,Customized_open2300,2013-07-07 06:45:00,
2013-07-06 23:55:00,65.8,53.7,29.87,ENE,67,0.0,0.0,65,0.00,,,0.00,Customized_open2300,2013-07-07 06:55:00,